Temperature
18 18 18 18 18 17 17 17 17 17 17 17 17 17 17 17 17 17 17 17 17 17 17 17 17 17 16 16 16 16 16 16 16 16 16 16 16 16 15 15 15 15 15
18 18 18 18 17 17 17 17 17 17 17 17 17 17 17 17 17 17 17 17 17 17 17 17 17 16 16 16 16 16 16 16 16 16 16 16 16 16 15 15 15 15 15
17 17 18 17 17 17 17 17 17 17 17 17 17 17 17 17 17 17 17 17 17 17 17 16 16 16 16 16 16 16 16 16 16 16 16 16 16 16 15 15 15 15 15
17 17 17 17 17 17 17 17 17 17 17 17 17 17 17 17 17 17 17 17 17 17 16 16 16 16 16 16 16 16 16 16 16 16 16 16 16 16 15 15 15 15 15
17 17 17 17 17 17 17 17 17 17 17 17 17 17 17 17 17 17 17 16 16 16 16 16 16 16 16 16 16 16 16 16 16 16 16 16 16 15 15 15 15 15 15
17 17 17 17 17 17 17 17 17 17 17 17 17 17 17 17 17 17 16 16 16 16 16 16 16 16 16 16 16 16 16 16 16 16 16 16 15 15 15 15 15 15 15
17 17 17 17 17 17 17 17 17 17 17 17 17 17 17 17 17 16 16 16 16 16 16 16 16 16 16 16 16 16 16 16 16 16 15 15 15 15 15 15 15 15 15
17 17 17 17 17 17 17 17 17 17 17 17 17 17 17 17 17 17 17 17 16 16 16 16 16 16 16 16 16 16 16 16 16 15 15 15 15 15 15 15 15 15 15
17 17 17 17 17 17 17 17 17 17 17 17 17 17 17 17 17 17 17 17 17 17 16 16 16 16 16 16 16 16 16 16 15 15 15 15 15 15 15 15 15 15 15
17 17 17 17 17 17 17 17 17 17 17 17 17 17 17 17 17 17 17 17 17 17 17 17 17 16 16 16 16 16 16 16 16 15 15 15 15 15 15 15 15 15 15
17 17 17 17 17 17 17 17 17 17 16 16 17 17 17 17 17 17 17 17 17 17 17 17 17 17 17 16 16 16 16 16 16 16 15 15 15 15 15 15 15 15 15
17 17 16 16 16 16 16 16 16 16 16 16 17 17 17 17 17 17 17 17 17 17 17 17 17 17 17 17 17 16 16 16 16 16 16 15 15 15 15 15 15 15 15
17 17 16 16 16 16 16 16 16 16 16 16 16 17 17 17 17 17 17 17 17 17 17 17 17 17 17 17 17 17 16 16 16 16 16 16 15 15 15 15 15 15 14
17 17 16 16 16 16 16 16 16 16 16 16 16 16 16 17 17 17 17 17 17 17 17 17 17 17 17 17 17 17 17 16 16 16 16 16 15 15 15 15 15 15 14
17 16 16 16 16 16 16 16 16 16 16 16 16 16 16 16 16 16 16 16 16 16 16 16 17 17 17 17 17 17 17 16 16 16 16 16 15 15 15 15 15 15 15
17 16 16 16 16 16 16 16 16 16 16 16 16 16 16 16 16 16 16 16 16 16 16 16 16 16 16 16 16 16 16 16 16 16 16 15 15 15 15 15 15 15 15
16 16 16 16 16 16 16 15 15 15 15 15 15 15 15 15 15 15 15 15 15 15 15 15 15 15 15 15 15 15 15 15 15 15 15 15 15 15 15 14 14 14 14
16 16 16 16 16 16 15 15 15 15 15 15 15 15 15 15 15 15 15 15 15 15 15 14 14 14 14 14 14 14 15 14 14 14 14 14 14 14 14 14 14 14 14
16 16 16 15 15 15 15 15 15 15 15 15 15 15 15 14 14 14 14 14 14 14 14 14 14 14 14 14 14 14 13 13 13 13 13 13 13 13 13 13 13 13 13
15 15 15 15 15 15 15 15 15 15 15 15 14 14 14 14 14 14 14 13 13 13 13 13 13 13 13 13 13 13 13 13 12 12 12 12 12 11 11 11 11 11 11
15 15 15 15 15 15 15 15 15 14 14 14 14 13 13 13 13 13 13 13 12 12 12 12 12 12 12 12 11 11 11 11 11 11 11 11 10 10 10 10 10 10 10
15 15 15 15 15 15 15 14 14 14 14 13 13 13 12 12 12 12 12 12 12 11 11 11 11 10 10 10 10 10 10 10 10 9 9 9 9 9 9 9 9 9 9
15 15 15 14 14 14 14 14 13 13 13 12 12 12 11 11 11 11 11 11 10 10 10 10 9 9 9 8 8 8 8 8 8 8 8 8 8 8 8 8 8 8 7
14 14 14 14 14 13 13 13 13 12 12 11 11 11 11 10 10 10 10 9 9 9 9 8 8 8 7 7 7 7 7 7 7 7 6 6 7 7 7 7 7 6 6
14 14 13 13 13 12 12 11 11 11 11 11 10 10 10 9 9 9 9 8 8 8 7 7 7 6 6 6 6 6 6 6 6 6 5 5 5 5 6 6 6 5 5
13 13 12 12 12 11 11 11 10 10 10 10 9 9 9 8 8 8 8 7 7 6 6 6 6 5 5 5 5 5 4 4 4 4 4 3 3 3 3 4 4 4 4
Wind_Speed
3 3 3 3 3 3 3 3 2 2 3 3 4 5 5 6 6 6 6 9 10 10 10 10 10 10 10 10 10 10 10 9 9 9 9 9 9 8 8 8 8 7 8
5 4 3 3 3 4 3 3 2 2 2 2 3 4 4 5 5 6 5 7 9 10 10 10 10 10 10 10 10 10 10 9 9 9 9 9 9 8 8 8 7 7 7
7 6 4 3 4 5 4 3 3 3 2 2 2 2 3 4 5 5 5 5 7 9 10 10 10 10 11 10 10 10 10 10 10 10 10 10 9 9 9 9 8 8 8
9 7 4 3 5 5 4 3 2 2 2 2 1 1 1 2 3 4 5 5 6 7 9 10 11 11 11 11 11 11 11 11 11 11 11 11 11 11 10 10 10 10 9
10 8 5 4 5 4 3 3 2 2 2 2 2 1 1 1 1 3 4 5 6 6 7 9 11 12 11 11 11 11 11 12 12 12 12 12 12 12 12 11 11 11 11
10 8 5 5 5 4 3 2 3 2 2 2 2 2 1 0 1 1 3 4 5 7 7 7 8 9 11 12 12 12 12 12 12 13 13 13 13 14 14 14 13 13 13
10 8 5 5 4 4 4 4 3 3 2 2 3 2 2 1 0 1 2 3 4 6 7 7 8 8 9 11 12 12 12 13 13 13 14 14 15 15 16 16 16 15 15
10 8 6 5 5 4 4 4 3 3 2 2 3 2 1 2 2 1 2 3 4 5 6 8 8 9 9 9 10 12 13 13 13 13 14 15 16 16 17 17 17 17 17
9 8 8 6 5 5 5 4 4 5 3 1 1 3 3 3 1 2 1 2 3 3 5 6 8 9 10 10 10 12 14 14 14 14 14 15 16 16 17 17 17 18 18
8 9 9 7 5 4 4 4 4 3 4 3 1 1 1 2 2 0 2 1 2 4 5 5 7 9 10 10 11 13 14 15 15 15 14 14 15 16 16 17 17 17 18
6 7 8 7 6 4 4 4 4 4 3 4 3 2 2 1 1 2 1 2 1 2 3 4 5 6 8 9 10 12 14 14 14 15 15 14 15 15 16 16 17 17 17
3 5 7 6 6 5 5 4 4 5 4 4 3 3 3 2 2 2 2 1 1 2 1 1 2 4 6 7 9 11 12 14 14 14 14 15 15 15 15 15 15 15 16
4 5 5 5 5 5 5 5 5 5 5 5 4 2 2 2 2 3 2 1 0 1 2 1 1 3 3 5 7 9 9 11 12 13 13 14 14 14 14 14 14 14 14
5 6 6 6 6 7 6 5 4 4 4 4 4 4 2 2 2 2 3 3 1 1 2 2 2 3 3 3 5 5 5 6 7 9 10 11 11 12 12 12 12 13 13
5 6 6 6 6 6 6 6 4 4 5 4 4 4 2 2 1 1 2 2 3 2 1 2 2 4 5 5 6 4 3 5 5 4 5 6 7 8 9 10 11 11 12
5 7 7 7 6 6 6 6 5 4 5 4 3 4 3 2 2 2 2 1 2 3 2 1 1 3 5 6 8 6 5 7 8 7 6 5 5 5 5 6 8 9 10
7 7 7 6 6 6 6 6 5 6 6 5 4 4 3 3 3 2 2 2 1 2 2 1 1 3 4 6 7 8 7 7 7 9 8 7 7 7 6 6 7 7 8
7 7 7 7 6 6 6 6 6 6 6 5 5 5 4 4 4 3 3 3 2 1 2 1 1 3 4 5 5 6 8 8 8 10 11 11 11 10 9 9 8 8 8
7 7 7 7 6 6 6 6 6 6 6 6 6 6 5 5 5 4 4 3 2 2 2 1 1 2 3 4 4 5 7 7 8 10 11 12 12 12 12 11 11 10 10
7 7 6 6 6 7 7 7 8 9 9 8 8 7 7 7 6 5 5 4 4 4 4 3 2 3 3 3 4 4 5 5 4 8 10 10 11 12 12 13 12 11 11
7 7 7 6 6 6 6 9 9 10 10 10 9 9 9 11 10 8 7 6 6 5 4 4 3 3 4 4 4 4 4 4 3 5 6 7 7 8 10 10 11 13 13
7 8 8 8 7 6 10 12 12 10 10 11 10 9 10 11 14 16 16 14 10 7 5 4 3 4 4 4 4 4 4 4 3 5 5 5 5 5 7 8 11 13 13
9 9 9 9 10 10 13 15 15 12 12 10 10 8 8 9 10 10 13 16 16 16 11 6 6 5 4 4 4 5 4 4 3 5 5 4 4 5 8 10 12 12 12
10 9 9 10 11 11 15 17 18 14 13 11 10 9 9 8 8 9 11 12 12 11 11 9 7 6 6 5 4 3 3 4 3 3 4 3 5 6 8 10 10 11 13
11 10 10 11 12 11 14 15 15 11 11 11 9 9 9 9 10 11 11 10 10 8 12 15 14 13 14 14 10 5 5 5 4 4 4 4 5 7 7 6 7 11 15
12 12 11 10 11 11 12 14 13 10 11 9 8 9 12 11 11 11 9 9 8 6 6 8 10 11 12 13 13 8 5 5 4 4 5 6 5 6 6 4 7 12 14
Wind_Direction
169 170 169 163 154 144 138 128 116 114 121 132 146 147 147 155 162 168 179 187 183 180 178 176 176 176 173 173 173 173 172 172 172 174 173 169 171 173 174 173 174 176 175
179 172 171 175 173 170 163 153 136 126 127 135 141 147 154 165 168 173 182 191 188 187 188 187 187 188 186 185 186 186 184 184 183 183 184 183 184 186 186 187 187 185 186
185 176 170 179 182 174 159 138 116 110 120 130 131 135 149 171 176 177 179 187 192 195 197 199 198 198 197 197 198 198 196 195 193 193 195 197 199 201 200 199 200 198 199
185 173 171 183 177 164 154 139 128 119 118 126 136 138 142 163 180 180 182 190 195 200 208 212 210 210 209 209 209 208 207 206 204 205 207 208 209 210 210 211 212 210 210
184 174 173 176 165 154 153 157 130 134 140 140 139 116 95 160 190 195 197 203 205 208 213 220 220 221 221 221 221 218 216 216 213 215 216 217 216 217 218 221 222 221 220
179 170 165 164 159 148 152 145 126 109 118 133 118 90 59 63 190 211 220 217 215 216 218 224 228 231 232 233 231 228 225 223 221 221 224 224 223 223 223 225 227 228 228
173 165 160 153 157 161 166 154 128 120 110 121 101 65 27 23 243 238 228 222 221 221 220 225 228 233 240 243 242 239 236 232 229 228 230 230 230 229 228 229 231 232 233
170 167 156 158 158 150 147 152 137 126 113 122 127 111 46 352 340 278 235 227 230 226 230 232 232 234 236 240 246 247 245 242 239 236 236 237 237 237 236 236 236 237 238
167 162 163 158 160 159 163 166 155 144 141 121 123 140 148 211 282 317 276 243 231 225 234 235 235 238 238 239 244 249 250 249 248 246 243 241 241 241 242 242 243 243 244
164 165 163 160 159 156 159 168 162 148 141 147 124 86 128 150 149 322 326 295 251 237 239 239 241 241 240 240 242 247 251 253 253 253 252 249 245 244 245 247 248 249 249
165 166 162 158 154 153 158 157 153 149 147 152 155 145 121 88 103 140 263 319 304 260 247 242 246 247 244 240 243 248 253 252 253 255 255 253 250 249 249 250 250 252 253
158 163 157 154 154 154 159 162 157 150 147 142 145 149 151 152 165 157 179 246 287 309 309 277 260 259 254 247 249 253 255 255 254 254 255 255 254 254 254 255 255 256 257
172 175 159 155 157 158 158 152 149 149 149 147 150 149 150 159 152 152 154 176 269 319 336 349 325 302 285 267 265 264 264 262 258 256 257 257 259 260 261 261 261 261 262
178 169 160 160 161 158 155 148 142 148 148 148 148 140 134 142 156 164 159 151 136 350 353 335 347 359 336 320 310 297 289 285 272 265 262 262 262 262 264 265 265 265 267
167 160 160 159 158 156 152 148 145 148 144 141 141 137 126 122 128 149 155 160 156 176 274 332 345 355 1 11 1 5 354 359 348 329 306 292 285 281 279 274 272 270 270
157 152 157 160 158 154 153 147 145 146 139 134 134 129 118 111 108 111 133 144 157 165 193 316 348 359 12 25 28 31 23 21 23 19 16 8 352 337 319 306 295 288 282
158 158 160 158 157 155 154 150 150 147 138 128 126 124 112 104 97 83 82 89 97 140 177 277 356 8 23 22 20 26 28 28 25 26 26 22 18 10 357 345 334 324 311
155 155 151 150 153 153 154 154 151 144 139 131 122 114 105 101 91 81 82 79 75 94 162 189 10 15 26 17 17 25 25 27 28 38 42 38 33 27 20 12 2 352 343
140 140 144 148 146 142 139 139 136 127 118 111 108 106 100 100 89 79 75 72 62 68 84 122 40 18 18 17 12 19 22 16 28 36 32 30 28 25 21 16 9 3 359
134 134 139 142 140 134 129 125 120 115 108 98 93 91 88 90 91 85 74 62 63 64 64 71 53 27 16 5 19 12 7 3 9 20 19 22 21 21 19 17 16 13 7
134 131 126 119 116 118 125 125 120 116 109 100 90 86 84 85 83 80 79 68 67 68 65 62 52 37 23 15 10 357 358 346 359 13 360 1 3 8 8 11 15 10 8
116 113 111 108 102 105 113 117 117 110 105 101 93 84 79 74 78 76 74 70 68 70 69 67 56 46 27 10 358 4 2 1 349 359 346 337 352 353 354 357 2 5 9
109 104 104 103 99 97 103 106 108 107 101 96 92 88 83 75 76 80 75 69 63 62 67 82 70 49 27 6 6 15 14 4 336 337 336 326 343 342 340 339 341 348 357
111 106 102 101 99 96 99 102 102 99 95 90 87 87 87 77 78 87 84 75 67 59 60 66 71 56 43 27 26 18 353 339 318 347 2 328 335 330 326 321 328 344 351
107 102 101 102 102 99 98 103 104 101 95 86 80 78 83 81 80 86 86 81 70 56 57 63 64 57 50 44 39 33 20 7 350 346 6 339 324 323 313 307 323 338 336
108 103 96 94 99 98 93 97 102 106 101 94 83 77 77 82 78 78 82 81 74 55 46 47 45 43 41 39 38 36 21 8 350 331 355 342 329 333 316 306 318 323 322
Height
1556 1557 1559 1561 1562 1563 1565 1566 1567 1569 1570 1571 1572 1574 1575 1576 1577 1578 1579 1580 1581 1582 1583 1585 1586 1588 1589 1590 1591 1592 1594 1595 1596 1597 1598 1599 1600 1601 1602 1602 1603 1604 1604
1556 1558 1559 1561 1563 1564 1565 1567 1568 1569 1571 1572 1573 1574 1575 1576 1577 1578 1579 1580 1581 1582 1584 1585 1586 1588 1589 1590 1591 1593 1594 1595 1596 1597 1598 1599 1600 1601 1601 1602 1603 1603 1604
1556 1558 1559 1561 1563 1564 1565 1567 1568 1569 1571 1572 1573 1574 1575 1576 1577 1578 1579 1580 1581 1582 1584 1585 1586 1588 1589 1590 1591 1592 1593 1594 1595 1596 1597 1598 1599 1600 1601 1601 1602 1603 1603
1556 1557 1559 1561 1563 1564 1565 1567 1568 1569 1570 1571 1572 1574 1575 1576 1577 1578 1579 1580 1581 1582 1583 1584 1586 1587 1588 1590 1591 1592 1593 1594 1595 1596 1597 1598 1598 1599 1600 1601 1601 1602 1602
1555 1557 1559 1561 1562 1564 1565 1566 1567 1569 1570 1571 1572 1573 1574 1576 1577 1578 1579 1580 1581 1582 1583 1584 1585 1586 1587 1589 1590 1591 1592 1593 1594 1595 1596 1596 1597 1598 1599 1599 1600 1601 1601
1554 1556 1558 1560 1561 1563 1564 1565 1567 1568 1569 1571 1572 1573 1574 1575 1576 1577 1578 1579 1580 1581 1582 1583 1584 1585 1586 1588 1589 1590 1591 1592 1592 1593 1594 1595 1595 1596 1597 1598 1598 1599 1599
1553 1555 1557 1559 1560 1562 1564 1565 1566 1567 1569 1570 1571 1572 1573 1574 1575 1576 1577 1578 1579 1580 1581 1582 1583 1584 1585 1587 1587 1588 1589 1590 1590 1591 1592 1592 1593 1594 1595 1595 1596 1597 1597
1552 1554 1556 1558 1559 1561 1562 1564 1565 1566 1568 1569 1570 1572 1573 1575 1574 1575 1576 1577 1578 1579 1580 1581 1582 1583 1584 1585 1586 1587 1587 1588 1588 1589 1589 1590 1591 1592 1592 1593 1593 1594 1595
1550 1553 1554 1556 1558 1560 1561 1563 1564 1565 1567 1568 1570 1571 1572 1573 1573 1575 1575 1576 1577 1578 1579 1580 1581 1582 1582 1583 1584 1585 1585 1586 1586 1587 1587 1588 1588 1589 1589 1590 1590 1591 1591
1549 1551 1553 1555 1557 1558 1560 1562 1563 1565 1566 1567 1569 1570 1572 1572 1573 1573 1575 1575 1576 1577 1578 1579 1579 1580 1581 1581 1582 1583 1583 1584 1584 1584 1585 1585 1586 1586 1586 1587 1587 1587 1588
1547 1549 1551 1553 1555 1557 1559 1561 1562 1564 1565 1566 1568 1569 1570 1571 1572 1573 1574 1575 1575 1576 1577 1577 1578 1579 1579 1580 1580 1580 1581 1581 1582 1582 1582 1583 1583 1583 1583 1583 1584 1584 1584
1544 1547 1549 1551 1553 1555 1557 1559 1561 1562 1564 1565 1567 1568 1569 1571 1571 1572 1573 1574 1574 1575 1576 1576 1576 1577 1577 1578 1578 1578 1579 1579 1580 1580 1580 1580 1580 1580 1580 1580 1580 1580 1580
1542 1544 1547 1549 1551 1554 1556 1558 1559 1561 1563 1564 1566 1567 1568 1569 1570 1571 1572 1572 1573 1574 1574 1575 1575 1575 1575 1576 1576 1576 1576 1577 1577 1577 1577 1577 1577 1577 1577 1577 1577 1576 1576
1540 1542 1545 1547 1550 1552 1554 1556 1558 1559 1561 1563 1564 1565 1567 1568 1569 1570 1571 1571 1571 1572 1572 1573 1573 1573 1573 1573 1573 1573 1573 1573 1574 1574 1574 1574 1574 1574 1573 1573 1573 1572 1572
1538 1540 1543 1546 1548 1550 1552 1554 1556 1558 1559 1561 1562 1563 1565 1566 1567 1568 1569 1569 1570 1570 1570 1570 1571 1570 1570 1570 1570 1570 1570 1570 1570 1570 1570 1570 1570 1569 1569 1569 1568 1568 1567
1536 1538 1541 1544 1546 1548 1551 1553 1555 1556 1558 1559 1560 1561 1563 1564 1565 1565 1566 1567 1567 1568 1567 1567 1568 1567 1567 1567 1567 1566 1566 1566 1565 1565 1565 1565 1564 1564 1564 1563 1563 1562 1562
1533 1536 1539 1542 1545 1547 1549 1551 1553 1555 1556 1558 1559 1560 1561 1562 1562 1563 1564 1564 1564 1565 1565 1565 1564 1564 1564 1564 1563 1563 1562 1562 1561 1561 1560 1560 1559 1559 1558 1557 1557 1556 1555
1532 1534 1537 1540 1543 1545 1548 1550 1552 1553 1555 1556 1557 1558 1559 1560 1560 1561 1561 1561 1562 1561 1562 1561 1561 1561 1560 1560 1559 1559 1558 1558 1557 1556 1555 1555 1554 1553 1552 1551 1550 1549 1549
1530 1533 1536 1538 1541 1543 1546 1548 1550 1551 1553 1554 1555 1556 1557 1558 1558 1558 1559 1559 1559 1559 1558 1558 1558 1557 1557 1556 1556 1555 1554 1553 1552 1552 1551 1550 1548 1547 1546 1545 1544 1543 1541
1528 1531 1534 1537 1539 1541 1543 1545 1547 1549 1550 1552 1553 1554 1555 1556 1556 1556 1556 1556 1556 1556 1556 1555 1555 1554 1553 1552 1552 1551 1550 1549 1548 1547 1546 1545 1543 1542 1541 1539 1538 1537 1535
1526 1529 1532 1535 1537 1539 1541 1543 1545 1547 1548 1549 1550 1552 1553 1553 1554 1554 1554 1554 1554 1554 1553 1553 1552 1551 1550 1549 1548 1547 1546 1545 1544 1543 1541 1540 1539 1537 1536 1534 1532 1531 1529
1525 1527 1530 1533 1535 1537 1539 1541 1544 1545 1546 1547 1549 1550 1551 1552 1552 1552 1553 1553 1552 1552 1551 1550 1550 1549 1548 1547 1546 1544 1543 1541 1540 1539 1537 1536 1534 1533 1531 1529 1527 1525 1523
1523 1526 1529 1531 1534 1536 1538 1540 1542 1544 1545 1546 1548 1549 1550 1551 1551 1551 1551 1551 1551 1550 1550 1549 1548 1547 1546 1545 1544 1542 1540 1539 1537 1534 1532 1531 1529 1527 1526 1524 1522 1520 1518
1522 1524 1527 1530 1532 1535 1537 1540 1542 1543 1544 1546 1547 1549 1550 1550 1550 1551 1551 1550 1550 1549 1548 1547 1547 1546 1545 1543 1542 1540 1538 1537 1534 1532 1529 1527 1524 1522 1520 1519 1517 1514 1512
1520 1523 1526 1529 1531 1534 1537 1539 1541 1543 1544 1546 1547 1549 1550 1550 1550 1551 1550 1550 1549 1549 1548 1547 1546 1545 1543 1542 1540 1538 1536 1533 1531 1528 1525 1523 1519 1516 1514 1513 1511 1508 1506
1518 1521 1525 1528 1531 1533 1536 1539 1542 1543 1544 1546 1547 1549 1550 1550 1551 1550 1550 1550 1549 1549 1548 1547 1545 1544 1542 1540 1538 1536 1533 1531 1528 1525 1522 1520 1516 1513 1509 1507 1505 1503 1499